Lac La Marte, Northwest Territories

6:13 AM MST on February 26, 2017 (GMT -0700)
Lac la Martre

Weather History for CWMT - October, 2013

Change the Weather History Date:

Thursday, October 31, 2013

  Actual Average Record
Temperature  
Mean Temperature 26 °F -  
Max Temperature 30 °F - - ()
Min Temperature 21 °F - - ()
Degree Days  
Heating Degree Days 40    
Moisture  
Dew Point 23 °F    
Average Humidity 88    
Maximum Humidity 98    
Minimum Humidity 67    
Precipitation  
Precipitation 0.00 in - - ()
Sea Level Pressure  
Sea Level Pressure 29.54 in    
Wind  
Wind Speed 4 mph ()    
Max Wind Speed 7 mph    
Max Gust Speed -    
T = Trace of Precipitation, MM = Missing Value Source: Averaged Metar Reports

Daily Weather History Graph

Daily Weather History Graph

Search for Another Location

Airport or City:

Trip Planner

Search our weather history database for the weather conditions in past years. The results will help you decide how hot, cold, wet, or windy it might be!

Date:

Astronomy

Oct. 31, 2013 Rise Set
Actual Time 9:24 AM MDT 5:39 PM MDT
Civil Twilight 8:33 AM MDT 6:30 PM MDT
Nautical Twilight 7:38 AM MDT 7:25 PM MDT
Astronomical Twilight 6:45 AM MDT 8:18 PM MDT
Moon 5:24 AM MDT (10/31) 4:45 PM MDT (10/31)
Length of Visible Light 9h 56m
Length of Day
8h 14m
Waning Crescent, 9% of the Moon is Illuminated
Oct 31
Waning Crescent
Nov 3
New
Nov 9
First Quarter
Nov 17
Full
Nov 25
Last Quarter

Hourly Weather History & Observations

Time (MDT) Temp. Windchill Dew Point Humidity Pressure Visibility Wind Dir Wind Speed Gust Speed Precip Events Conditions
12:00 AM 30 °F - 23 °F 67% 29.43 in - NNW 6.9 mph - -  
12:00 AM 30.4 °F 23.6 °F 23.4 °F 75% 29.43 in - NNW 6.9 mph - N/A   Unknown
1:00 AM 30.0 °F 23.2 °F 23.7 °F 77% 29.43 in - NNW 6.9 mph - N/A   Unknown
2:00 AM 28.4 °F 22.2 °F 23.5 °F 82% 29.44 in - North 5.8 mph - N/A   Unknown
3:00 AM 26.8 °F 20.2 °F 22.8 °F 85% 29.45 in - North 5.8 mph - N/A   Unknown
4:00 AM 26.2 °F 20.7 °F 22.6 °F 86% 29.46 in - North 4.6 mph - N/A   Unknown
5:00 AM 25.7 °F 21.5 °F 22.8 °F 89% 29.46 in - North 3.5 mph - N/A   Unknown
6:00 AM 25 °F - 22 °F 84% 29.47 in - North 3.5 mph - -  
6:00 AM 24.8 °F 20.5 °F 22.1 °F 89% 29.47 in - North 3.5 mph - N/A   Unknown
7:00 AM 23.5 °F 19.1 °F 21.6 °F 92% 29.49 in - North 3.5 mph - N/A   Unknown
8:00 AM 23.4 °F - 21.9 °F 94% 29.49 in - North 2.3 mph - N/A   Unknown
9:00 AM 25.2 °F - 23.4 °F 93% 29.51 in - North 2.3 mph - N/A   Unknown
10:00 AM 25.9 °F 21.7 °F 23.7 °F 92% 29.52 in - North 3.5 mph - N/A   Unknown
11:00 AM 26.2 °F 22.1 °F 23.5 °F 90% 29.54 in - NW 3.5 mph - N/A   Unknown
12:00 PM 26 °F - 24 °F 86% 29.55 in - North 2.3 mph - -  
12:00 PM 26.4 °F - 23.5 °F 89% 29.55 in - North 2.3 mph - N/A   Unknown
1:00 PM 27.0 °F 23.0 °F 24.3 °F 90% 29.56 in - North 3.5 mph - N/A   Unknown
2:00 PM 26.8 °F 21.4 °F 23.9 °F 89% 29.58 in - WNW 4.6 mph - N/A   Unknown
3:00 PM 27.3 °F 23.4 °F 23.0 °F 84% 29.59 in - NW 3.5 mph - N/A   Unknown
4:00 PM 27.0 °F 23.0 °F 23.2 °F 86% 29.60 in - NW 3.5 mph - N/A   Unknown
5:00 PM 26.8 °F 22.8 °F 23.5 °F 88% 29.62 in - NW 3.5 mph - N/A   Unknown
6:00 PM 26 °F - 23 °F 84% 29.63 in - North 2.3 mph - -  
6:00 PM 25.9 °F - 23.2 °F 90% 29.63 in - North 2.3 mph - N/A   Unknown
7:00 PM 23.7 °F 19.3 °F 21.7 °F 92% 29.65 in - NE 3.5 mph - N/A   Unknown
8:00 PM 21.2 °F - 19.9 °F 95% 29.65 in - East 2.3 mph - N/A   Unknown
9:00 PM 21.7 °F - 21.0 °F 97% 29.66 in - East 1.2 mph - N/A   Unknown
10:00 PM 21.6 °F - 20.7 °F 96% 29.67 in - East 1.2 mph - N/A   Unknown
11:00 PM 21.7 °F 17.0 °F 21.2 °F 98% 29.68 in - ENE 3.5 mph - N/A   Unknown